Time,TemperatureF,DewpointF,PressureIn,WindDirection,WindDirectionDegrees,WindSpeedMPH,WindSpeedGustMPH,Humidity,HourlyPrecipIn,Conditions,Clouds,dailyrainin,SoftwareType,DateUTC
2013-05-22 00:01:00,62.2,59.2,26.79,South,173,0.0,0.0,90,0.00,,,-99.99,VWS V12.07,2013-05-22 04:01:00,
2013-05-22 00:31:00,60.7,59.6,26.77,South,185,0.0,0.0,96,0.00,,,-99.99,VWS V12.07,2013-05-22 04:31:00,
2013-05-22 01:01:00,61.0,59.3,26.77,East,94,0.0,0.0,94,0.00,,,-99.99,VWS V12.07,2013-05-22 05:01:00,
2013-05-22 01:31:00,59.7,58.8,26.76,East,94,0.0,0.0,97,0.00,,,-99.99,VWS V12.07,2013-05-22 05:31:00,
2013-05-22 02:01:00,58.6,58.0,26.75,East,93,0.0,0.0,98,0.00,,,-99.99,VWS V12.07,2013-05-22 06:01:00,
2013-05-22 02:31:00,57.4,57.4,26.75,East,93,0.0,0.0,100,0.00,,,-99.99,VWS V12.07,2013-05-22 06:31:00,
2013-05-22 03:01:00,56.5,56.5,26.73,East,94,0.0,0.0,100,0.00,,,-99.99,VWS V12.07,2013-05-22 07:01:00,
2013-05-22 03:31:00,57.4,57.4,26.73,East,95,0.0,0.0,100,0.00,,,-99.99,VWS V12.07,2013-05-22 07:31:00,
2013-05-22 04:01:00,61.1,61.1,26.74,SSE,156,0.0,0.0,100,0.00,,,-99.99,VWS V12.07,2013-05-22 08:01:00,
2013-05-22 04:31:00,61.4,61.4,26.74,SSE,160,0.0,0.0,100,0.00,,,-99.99,VWS V12.07,2013-05-22 08:31:00,
2013-05-22 05:01:00,60.4,60.4,26.74,SSE,165,0.0,0.0,100,0.00,,,-99.99,VWS V12.07,2013-05-22 09:01:00,
2013-05-22 05:31:00,57.4,57.4,26.75,SSE,165,0.0,0.0,100,0.00,,,-99.99,VWS V12.07,2013-05-22 09:31:00,
2013-05-22 06:01:00,57.6,57.6,26.75,South,172,0.0,0.0,100,0.00,,,-99.99,VWS V12.07,2013-05-22 10:01:00,
2013-05-22 06:31:00,59.1,59.1,26.76,ESE,102,0.0,0.0,100,0.00,,,-99.99,VWS V12.07,2013-05-22 10:31:00,
2013-05-22 07:01:00,63.0,63.0,26.76,East,89,0.0,0.0,100,0.00,,,-99.99,VWS V12.07,2013-05-22 11:01:00,
2013-05-22 07:31:00,66.4,66.4,26.77,ESE,118,0.0,0.0,100,0.00,,,-99.99,VWS V12.07,2013-05-22 11:31:00,
2013-05-22 08:01:00,66.9,66.3,26.77,NE,41,0.0,0.0,98,0.00,,,-99.99,VWS V12.07,2013-05-22 12:01:00,
2013-05-22 08:31:00,68.4,67.2,26.78,NE,42,0.0,0.0,96,0.00,,,-99.99,VWS V12.07,2013-05-22 12:31:00,
2013-05-22 09:01:00,68.9,67.7,26.78,NE,42,0.0,0.0,96,0.00,,,-99.99,VWS V12.07,2013-05-22 13:01:00,
2013-05-22 09:31:00,68.9,68.0,26.78,ENE,57,0.0,0.0,97,0.00,,,-99.99,VWS V12.07,2013-05-22 13:31:00,
2013-05-22 10:01:00,69.2,68.9,26.78,NE,45,0.0,0.0,99,0.00,,,-99.99,VWS V12.07,2013-05-22 14:01:00,
2013-05-22 10:31:00,68.7,68.7,26.78,ENE,67,0.0,0.0,100,0.00,,,-99.99,VWS V12.07,2013-05-22 14:31:00,
2013-05-22 11:01:00,69.0,69.0,26.78,East,95,0.0,0.0,100,0.00,,,-99.99,VWS V12.07,2013-05-22 15:01:00,
2013-05-22 11:31:00,69.0,69.0,26.77,NE,35,0.0,0.0,100,0.00,,,-99.99,VWS V12.07,2013-05-22 15:31:00,
2013-05-22 12:01:00,70.5,68.7,26.76,ENE,71,0.0,0.0,94,0.00,,,-99.99,VWS V12.07,2013-05-22 16:01:00,
2013-05-22 12:31:00,71.7,68.0,26.76,SSE,148,0.0,0.0,88,0.00,,,-99.99,VWS V12.07,2013-05-22 16:31:00,
2013-05-22 13:01:00,72.5,67.7,26.76,ENE,73,0.0,0.0,85,0.00,,,-99.99,VWS V12.07,2013-05-22 17:01:00,
2013-05-22 13:31:00,70.7,66.3,26.75,SE,145,0.0,0.0,86,0.00,,,-99.99,VWS V12.07,2013-05-22 17:31:00,
2013-05-22 14:01:00,63.3,62.1,26.77,SE,137,0.0,2.0,96,0.14,,,-99.99,VWS V12.07,2013-05-22 18:01:00,
2013-05-22 14:31:00,58.0,58.0,26.76,SE,132,0.0,0.0,100,0.37,,,-99.99,VWS V12.07,2013-05-22 18:31:00,
2013-05-22 15:01:00,61.5,61.5,26.73,NNW,342,0.0,0.0,100,0.25,,,-99.99,VWS V12.07,2013-05-22 19:01:00,
2013-05-22 15:31:00,64.6,63.1,26.73,NNW,337,0.0,0.0,95,0.01,,,-99.99,VWS V12.07,2013-05-22 19:31:00,
2013-05-22 16:01:00,67.0,64.0,26.72,South,190,0.0,0.0,90,0.00,,,-99.99,VWS V12.07,2013-05-22 20:01:00,
2013-05-22 16:31:00,67.9,62.5,26.72,SE,139,5.0,19.0,83,0.00,,,-99.99,VWS V12.07,2013-05-22 20:31:00,
2013-05-22 17:01:00,65.4,60.8,26.73,ESE,103,14.0,79.0,85,0.00,,,-99.99,VWS V12.07,2013-05-22 21:01:00,
2013-05-22 17:31:00,63.6,60.3,26.73,East,89,8.0,81.0,89,0.01,,,-99.99,VWS V12.07,2013-05-22 21:31:00,
2013-05-22 18:01:00,61.4,61.4,26.74,East,97,0.0,34.0,100,0.03,,,-99.99,VWS V12.07,2013-05-22 22:01:00,
2013-05-22 18:31:00,60.5,60.5,26.76,ESE,106,0.0,3.0,100,0.04,,,-99.99,VWS V12.07,2013-05-22 22:31:00,
2013-05-22 19:01:00,59.7,59.7,26.74,SSE,161,0.0,0.0,100,0.09,,,-99.99,VWS V12.07,2013-05-22 23:01:00,
2013-05-22 19:31:00,59.3,59.3,26.74,SSE,162,0.0,0.0,100,0.17,,,-99.99,VWS V12.07,2013-05-22 23:31:00,
2013-05-22 20:02:00,58.8,58.8,26.74,NNE,19,2.0,6.0,100,0.19,,,-99.99,VWS V12.07,2013-05-23 00:02:00,
2013-05-22 20:31:00,58.3,58.3,26.75,NNE,21,3.0,5.0,100,0.14,,,-99.99,VWS V12.07,2013-05-23 00:31:00,
2013-05-22 21:01:00,58.3,58.3,26.75,NNE,31,2.0,3.0,100,0.04,,,-99.99,VWS V12.07,2013-05-23 01:01:00,
2013-05-22 21:31:00,58.2,58.2,26.76,NNE,22,0.0,2.0,100,0.00,,,-99.99,VWS V12.07,2013-05-23 01:31:00,
2013-05-22 22:02:00,57.9,57.9,26.75,NNE,12,0.0,0.0,100,0.00,,,-99.99,VWS V12.07,2013-05-23 02:02:00,
2013-05-22 22:31:00,57.6,57.6,26.73,North,5,0.0,3.0,100,0.00,,,-99.99,VWS V12.07,2013-05-23 02:31:00,
2013-05-22 23:02:00,57.9,57.9,26.76,SE,127,5.0,12.0,100,0.00,,,-99.99,VWS V12.07,2013-05-23 03:02:00,
2013-05-22 23:31:00,58.2,58.2,26.75,SSE,152,3.0,5.0,100,0.06,,,-99.99,VWS V12.07,2013-05-23 03:31:00,